START_TIME,STEP,MOV.,AL01,t_acc.,AL02,t_acc.,E37,t_acc.,H21,t_acc.
1979-07-24 03:00:33.810 ,1,0,11.,24.0,3.,24.0,4.,24.0,0.,24.0
1979-07-24 03:00:57.810 ,2,1,11.,24.0,0.,24.0,7.,24.0,0.,24.0
1979-07-24 03:01:21.810 ,2,0,6.,24.0,4.,24.0,3.,24.0,0.,24.0
1979-07-24 03:01:45.810 ,3,1,3.,24.0,2.,24.0,6.,24.0,0.,24.0
1979-07-24 03:02:09.810 ,3,0,1.,24.0,2.,24.0,0.,24.0,0.,24.0
1979-07-24 03:02:33.810 ,4,1,2.,24.0,3.,24.0,1.,24.0,0.,24.0
1979-07-24 03:02:57.810 ,4,0,4.,24.0,3.,24.0,6.,24.0,0.,24.0
1979-07-24 03:03:21.810 ,5,1,5.,24.0,1.,24.0,4.,24.0,0.,24.0
1979-07-24 03:03:45.810 ,5,0,6.,24.0,0.,24.0,1.,24.0,0.,24.0
1979-07-24 03:04:09.810 ,6,1,3.,24.0,2.,24.0,5.,24.0,0.,24.0
1979-07-24 03:04:33.810 ,6,0,10.,24.0,6.,24.0,6.,24.0,0.,24.0
1979-07-24 03:04:57.810 ,7,1,15.,24.0,4.,24.0,6.,24.0,0.,24.0
1979-07-24 03:05:21.810 ,7,0,26.,24.0,0.,24.0,4.,24.0,0.,24.0
1979-07-24 03:05:45.810 ,7,1,36.,24.0,0.,24.0,1.,24.0,0.,24.0
1979-07-24 03:06:09.810 ,7,0,38.,24.0,0.,24.0,6.,24.0,0.,24.0
1979-07-24 03:06:33.810 ,6,1,37.,24.0,1.,24.0,3.,24.0,0.,24.0
1979-07-24 03:06:57.810 ,6,0,10.,24.0,5.,24.0,5.,24.0,0.,24.0
1979-07-24 03:07:21.810 ,5,1,9.,24.0,2.,24.0,3.,24.0,0.,24.0
1979-07-24 03:07:45.810 ,5,0,2.,24.0,2.,24.0,3.,24.0,0.,24.0
1979-07-24 03:08:09.810 ,4,1,6.,24.0,1.,24.0,0.,24.0,0.,24.0
1979-07-24 03:08:33.810 ,4,0,5.,24.0,1.,24.0,1.,24.0,0.,24.0
1979-07-24 03:08:57.810 ,3,1,1.,24.0,2.,24.0,2.,24.0,0.,24.0
1979-07-24 03:09:21.810 ,3,0,4.,24.0,0.,24.0,2.,24.0,0.,24.0
1979-07-24 03:09:45.810 ,2,1,3.,24.0,0.,24.0,4.,24.0,0.,24.0
1979-07-24 03:10:09.810 ,2,0,5.,24.0,2.,24.0,3.,24.0,0.,24.0
1979-07-24 03:10:33.810 ,1,1,10.,24.0,3.,24.0,1.,24.0,0.,24.0
1979-07-24 03:10:57.810 ,1,0,15.,24.0,3.,24.0,2.,24.0,0.,24.0
1979-07-24 03:11:21.810 ,0,1,16.,24.0,4.,24.0,7.,24.0,0.,24.0
1979-07-24 03:11:45.810 ,0,0,14.,24.0,4.,24.0,2.,24.0,0.,24.0
1979-07-24 03:12:09.810 ,0,1,9.,24.0,8.,24.0,1.,24.0,0.,24.0
1979-07-24 03:12:33.810 ,0,0,17.,24.0,2.,24.0,3.,24.0,0.,24.0
1979-07-24 03:12:57.810 ,1,1,14.,24.0,7.,24.0,2.,24.0,0.,24.0
1979-07-24 03:13:21.810 ,1,0,13.,24.0,3.,24.0,2.,24.0,0.,24.0
1979-07-24 03:13:45.810 ,2,1,8.,24.0,6.,24.0,6.,24.0,0.,24.0
1979-07-24 03:14:09.810 ,2,0,7.,24.0,4.,24.0,3.,24.0,0.,24.0
1979-07-24 03:14:33.810 ,3,1,11.,24.0,0.,24.0,3.,24.0,0.,24.0
1979-07-24 03:14:57.810 ,3,0,6.,24.0,0.,24.0,3.,24.0,0.,24.0
1979-07-24 03:15:21.810 ,4,1,3.,24.0,2.,24.0,2.,24.0,0.,24.0
1979-07-24 03:15:45.810 ,4,0,4.,24.0,0.,24.0,6.,24.0,0.,24.0
1979-07-24 03:16:09.810 ,5,1,5.,24.0,0.,24.0,2.,24.0,0.,24.0
1979-07-24 03:16:33.810 ,5,0,8.,24.0,4.,24.0,6.,24.0,0.,24.0
1979-07-24 03:16:57.810 ,6,1,10.,24.0,3.,24.0,0.,24.0,0.,24.0
1979-07-24 03:17:21.810 ,6,0,6.,24.0,2.,24.0,4.,24.0,0.,24.0
1979-07-24 03:17:45.810 ,7,1,16.,24.0,0.,24.0,2.,24.0,0.,24.0
1979-07-24 03:18:09.810 ,7,0,39.,24.0,0.,24.0,1.,24.0,0.,24.0
1979-07-24 03:18:33.810 ,7,1,24.,24.0,0.,24.0,4.,24.0,0.,24.0
1979-07-24 03:18:57.810 ,7,0,34.,24.0,0.,24.0,3.,24.0,0.,24.0
1979-07-24 03:19:21.810 ,6,1,32.,24.0,0.,24.0,1.,24.0,0.,24.0
1979-07-24 03:19:45.810 ,6,0,7.,24.0,2.,24.0,2.,24.0,0.,24.0
1979-07-24 03:20:09.810 ,5,1,6.,24.0,1.,24.0,5.,24.0,0.,24.0
1979-07-24 03:20:33.810 ,5,0,8.,24.0,1.,24.0,3.,24.0,0.,24.0
1979-07-24 03:20:57.810 ,4,1,11.,24.0,0.,24.0,3.,24.0,0.,24.0
1979-07-24 03:21:21.810 ,4,0,0.,24.0,3.,24.0,2.,24.0,0.,24.0
1979-07-24 03:21:45.810 ,3,1,5.,24.0,0.,24.0,3.,24.0,0.,24.0
1979-07-24 03:22:09.810 ,3,0,1.,24.0,4.,24.0,2.,24.0,0.,24.0
1979-07-24 03:22:33.810 ,2,1,2.,24.0,1.,24.0,1.,24.0,0.,24.0
1979-07-24 03:22:57.810 ,2,0,4.,24.0,4.,24.0,2.,24.0,0.,24.0
1979-07-24 03:23:21.810 ,1,1,11.,24.0,2.,24.0,1.,24.0,0.,24.0
1979-07-24 03:23:45.810 ,1,0,26.,24.0,6.,24.0,1.,24.0,0.,24.0
1979-07-24 03:24:09.810 ,0,1,35.,24.0,10.,24.0,5.,24.0,0.,24.0
1979-07-24 03:24:33.810 ,0,0,14.,24.0,7.,24.0,2.,24.0,0.,24.0
1979-07-24 03:24:57.810 ,0,1,13.,24.0,9.,24.0,4.,24.0,0.,24.0
1979-07-24 03:25:21.810 ,0,0,14.,24.0,4.,24.0,4.,24.0,0.,24.0
1979-07-24 03:25:45.810 ,1,1,22.,24.0,3.,24.0,1.,24.0,0.,24.0
1979-07-24 03:26:09.810 ,1,0,27.,24.0,3.,24.0,3.,24.0,0.,24.0
1979-07-24 03:26:33.810 ,2,1,17.,24.0,3.,24.0,2.,24.0,0.,24.0
1979-07-24 03:26:57.810 ,2,0,7.,24.0,2.,24.0,4.,24.0,0.,24.0
1979-07-24 03:27:21.810 ,3,1,14.,24.0,1.,24.0,4.,24.0,0.,24.0
1979-07-24 03:27:45.810 ,3,0,3.,24.0,1.,24.0,4.,24.0,0.,24.0
1979-07-24 03:28:09.810 ,4,1,4.,24.0,0.,24.0,2.,24.0,0.,24.0
1979-07-24 03:28:33.810 ,4,0,5.,24.0,2.,24.0,4.,24.0,0.,24.0
1979-07-24 03:28:57.810 ,5,1,2.,24.0,2.,24.0,3.,24.0,0.,24.0
1979-07-24 03:29:21.810 ,5,0,4.,24.0,1.,24.0,5.,24.0,0.,24.0
1979-07-24 03:29:45.810 ,6,1,10.,24.0,2.,24.0,5.,24.0,0.,24.0
1979-07-24 03:30:09.810 ,6,0,6.,24.0,0.,24.0,4.,24.0,0.,24.0
1979-07-24 03:30:33.810 ,7,0,10.,24.0,2.,24.0,1.,24.0,0.,24.0
1979-07-24 03:30:57.810 ,7,0,28.,24.0,0.,24.0,3.,24.0,0.,24.0
1979-07-24 03:31:21.810 ,5,1,16.,24.0,1.,24.0,4.,24.0,0.,24.0
1979-07-24 03:31:45.810 ,1,1,17.,24.0,4.,24.0,1.,24.0,0.,24.0
1979-07-24 03:32:09.810 ,2,1,14.,24.0,4.,24.0,5.,24.0,0.,24.0
1979-07-24 03:32:33.810 ,6,1,5.,24.0,0.,24.0,1.,24.0,0.,24.0
1979-07-24 03:32:57.810 ,5,1,16.,24.0,3.,24.0,6.,24.0,0.,24.0
1979-07-24 03:33:21.810 ,1,1,9.,24.0,3.,24.0,1.,24.0,0.,24.0
1979-07-24 03:33:45.810 ,2,1,17.,24.0,4.,24.0,0.,24.0,0.,24.0
1979-07-24 03:34:09.810 ,6,1,6.,24.0,2.,24.0,3.,24.0,0.,24.0
1979-07-24 03:34:33.810 ,5,1,16.,24.0,0.,24.0,1.,24.0,0.,24.0
1979-07-24 03:34:57.810 ,1,1,12.,24.0,4.,24.0,2.,24.0,0.,24.0
1979-07-24 03:35:21.810 ,2,1,13.,24.0,4.,24.0,2.,24.0,0.,24.0
1979-07-24 03:35:45.810 ,6,1,4.,24.0,1.,24.0,2.,24.0,0.,24.0
1979-07-24 03:36:09.810 ,5,1,14.,24.0,1.,24.0,3.,24.0,0.,24.0
1979-07-24 03:36:33.810 ,1,1,11.,24.0,2.,24.0,1.,24.0,0.,24.0
1979-07-24 03:36:57.810 ,2,1,16.,24.0,4.,24.0,1.,24.0,0.,24.0
1979-07-24 03:37:21.810 ,6,1,3.,24.0,1.,24.0,4.,24.0,0.,24.0
1979-07-24 03:37:45.810 ,5,1,18.,24.0,0.,24.0,7.,24.0,0.,24.0
1979-07-24 03:38:09.810 ,1,1,9.,24.0,1.,24.0,2.,24.0,0.,24.0
1979-07-24 03:38:33.810 ,2,1,8.,24.0,0.,24.0,2.,24.0,0.,24.0
1979-07-24 03:38:57.810 ,6,1,6.,24.0,2.,24.0,3.,24.0,0.,24.0
1979-07-24 03:39:21.810 ,5,1,14.,24.0,1.,24.0,2.,24.0,0.,24.0
1979-07-24 03:39:45.810 ,1,1,7.,24.0,3.,24.0,3.,24.0,0.,24.0
1979-07-24 03:40:09.810 ,2,1,12.,24.0,2.,24.0,3.,24.0,0.,24.0
1979-07-24 03:40:33.810 ,6,1,4.,24.0,3.,24.0,1.,24.0,0.,24.0
1979-07-24 03:41:45.810 ,0,0,15.,24.0,4.,24.0,5.,24.0,0.,24.0
1979-07-24 03:42:09.810 ,0,0,18.,24.0,16.,24.0,1048576.,24.0,4128768.,24.0
1979-07-24 03:42:09.810 ,0,0,2.,24.0,0.,24.0,3.,24.0,0.,24.0
1979-07-24 03:42:33.810 ,5,1,22.,24.0,0.,24.0,3.,24.0,0.,24.0
1979-07-24 03:42:57.810 ,5,0,3.,24.0,2.,24.0,4.,24.0,0.,24.0
1979-07-24 03:43:21.810 ,4,1,4.,24.0,1.,24.0,2.,24.0,0.,24.0
1979-07-24 03:43:45.810 ,4,0,5.,24.0,0.,24.0,3.,24.0,0.,24.0
1979-07-24 03:44:09.810 ,3,1,2.,24.0,3.,24.0,2.,24.0,0.,24.0
1979-07-24 03:44:33.810 ,3,0,6.,24.0,0.,24.0,2.,24.0,0.,24.0
1979-07-24 03:44:57.810 ,2,1,5.,24.0,1.,24.0,3.,24.0,0.,24.0
1979-07-24 03:45:21.810 ,2,0,9.,24.0,2.,24.0,2.,24.0,0.,24.0
1979-07-24 03:45:45.810 ,1,1,9.,24.0,3.,24.0,1.,24.0,0.,24.0
1979-07-24 03:46:09.810 ,1,0,8.,24.0,2.,24.0,2.,24.0,0.,24.0
1979-07-24 03:46:33.810 ,0,1,8.,24.0,6.,24.0,1.,24.0,0.,24.0
1979-07-24 03:46:57.810 ,0,0,16.,24.0,7.,24.0,2.,24.0,0.,24.0
1979-07-24 03:47:21.810 ,0,1,20.,24.0,7.,24.0,3.,24.0,0.,24.0
1979-07-24 03:47:45.810 ,0,0,13.,24.0,4.,24.0,2.,24.0,0.,24.0
1979-07-24 03:48:09.810 ,1,1,11.,24.0,2.,24.0,3.,24.0,0.,24.0
1979-07-24 03:48:33.810 ,1,0,11.,24.0,0.,24.0,1.,24.0,0.,24.0
1979-07-24 03:48:57.810 ,2,1,4.,24.0,2.,24.0,1.,24.0,0.,24.0
1979-07-24 03:49:21.810 ,2,0,5.,24.0,1.,24.0,2.,24.0,0.,24.0
1979-07-24 03:49:45.800 ,3,1,5.,24.0,1.,24.0,2.,24.0,0.,24.0
1979-07-24 03:50:09.800 ,3,0,2.,24.0,1.,24.0,0.,24.0,0.,24.0
1979-07-24 03:50:33.800 ,4,1,3.,24.0,2.,24.0,2.,24.0,0.,24.0
1979-07-24 03:50:57.800 ,4,0,4.,24.0,0.,24.0,0.,24.0,0.,24.0
1979-07-24 03:51:21.800 ,5,1,5.,24.0,1.,24.0,2.,24.0,0.,24.0
1979-07-24 03:51:45.800 ,5,0,4.,24.0,3.,24.0,5.,24.0,0.,24.0
1979-07-24 03:52:09.800 ,6,1,3.,24.0,0.,24.0,0.,24.0,0.,24.0
1979-07-24 03:52:33.800 ,6,0,5.,24.0,2.,24.0,3.,24.0,0.,24.0
1979-07-24 03:52:57.800 ,7,1,12.,24.0,1.,24.0,3.,24.0,0.,24.0
1979-07-24 03:53:21.800 ,7,0,30.,24.0,0.,24.0,1.,24.0,0.,24.0
1979-07-24 03:53:45.800 ,7,1,35.,24.0,0.,24.0,2.,24.0,0.,24.0
1979-07-24 03:54:09.800 ,7,0,30.,24.0,0.,24.0,0.,24.0,0.,24.0
1979-07-24 03:54:33.800 ,6,1,31.,24.0,0.,24.0,6.,24.0,0.,24.0
1979-07-24 03:54:57.800 ,6,0,6.,24.0,1.,24.0,2.,24.0,0.,24.0
1979-07-24 03:55:45.800 ,5,0,1.,24.0,0.,24.0,4.,24.0,0.,24.0
1979-07-24 03:56:09.800 ,4,1,4.,24.0,1.,24.0,4.,24.0,0.,24.0
1979-07-24 03:56:33.800 ,4,0,3.,24.0,2.,24.0,1.,24.0,0.,24.0
1979-07-24 03:56:57.800 ,3,1,3.,24.0,0.,24.0,4.,24.0,0.,24.0
1979-07-24 03:57:21.800 ,3,0,4.,24.0,1.,24.0,0.,24.0,0.,24.0
1979-07-24 03:57:45.800 ,2,1,2.,24.0,1.,24.0,1.,24.0,0.,24.0
1979-07-24 03:58:09.800 ,2,0,6.,24.0,0.,24.0,1.,24.0,0.,24.0
1979-07-24 03:58:33.800 ,1,1,6.,24.0,1.,24.0,1.,24.0,0.,24.0
1979-07-24 03:58:57.800 ,1,0,8.,24.0,1.,24.0,4.,24.0,0.,24.0
1979-07-24 03:59:21.800 ,0,1,11.,24.0,1.,24.0,4.,24.0,0.,24.0
1979-07-24 03:59:45.800 ,0,0,15.,24.0,3.,24.0,5.,24.0,0.,24.0
1979-07-24 04:00:09.800 ,0,1,16.,24.0,2.,24.0,2.,24.0,0.,24.0
1979-07-24 04:00:33.810 ,0,0,13.,24.0,2.,24.0,4.,24.0,0.,24.0
1979-07-24 04:00:57.810 ,1,1,13.,24.0,2.,24.0,2.,24.0,0.,24.0
1979-07-24 04:01:21.810 ,1,0,10.,24.0,2.,24.0,2.,24.0,0.,24.0
1979-07-24 04:01:45.810 ,2,1,14.,24.0,3.,24.0,1.,24.0,0.,24.0
1979-07-24 04:02:09.810 ,2,0,3.,24.0,0.,24.0,0.,24.0,0.,24.0
1979-07-24 04:02:33.810 ,3,1,3.,24.0,1.,24.0,1.,24.0,0.,24.0
1979-07-24 04:02:57.810 ,3,0,4.,24.0,0.,24.0,4.,24.0,0.,24.0
1979-07-24 04:03:21.810 ,4,1,2.,24.0,1.,24.0,3.,24.0,0.,24.0
1979-07-24 04:03:45.810 ,4,0,1.,24.0,1.,24.0,2.,24.0,0.,24.0
1979-07-24 04:04:09.810 ,5,1,3.,24.0,2.,24.0,5.,24.0,0.,24.0
1979-07-24 04:04:33.810 ,5,0,7.,24.0,2.,24.0,2.,24.0,0.,24.0
1979-07-24 04:04:57.810 ,6,1,1.,24.0,0.,24.0,5.,24.0,0.,24.0
1979-07-24 04:05:21.810 ,6,0,6.,24.0,1.,24.0,4.,24.0,0.,24.0
1979-07-24 04:05:45.810 ,7,1,7.,24.0,0.,24.0,3.,24.0,0.,24.0
1979-07-24 04:06:09.800 ,7,0,23.,24.0,0.,24.0,3.,24.0,0.,24.0
1979-07-24 04:06:33.810 ,7,1,35.,24.0,0.,24.0,3.,24.0,0.,24.0
1979-07-24 04:06:57.810 ,7,0,26.,24.0,0.,24.0,3.,24.0,0.,24.0
1979-07-24 04:07:21.810 ,6,1,20.,24.0,0.,24.0,2.,24.0,0.,24.0
1979-07-24 04:07:45.810 ,6,0,4.,24.0,1.,24.0,4.,24.0,0.,24.0
1979-07-24 04:08:09.800 ,5,1,7.,24.0,0.,24.0,3.,24.0,0.,24.0
1979-07-24 04:08:33.800 ,5,0,2.,24.0,0.,24.0,2.,24.0,0.,24.0
1979-07-24 04:08:57.800 ,4,1,4.,24.0,1.,24.0,4.,24.0,0.,24.0
1979-07-24 04:09:21.800 ,4,0,3.,24.0,0.,24.0,5.,24.0,0.,24.0
1979-07-24 04:09:45.800 ,0,0,3.,24.0,0.,24.0,1.,24.0,0.,24.0
1979-07-24 04:10:09.800 ,0,0,2.,24.0,0.,24.0,3.,24.0,0.,24.0
1979-07-24 04:10:33.800 ,2,1,5.,24.0,0.,24.0,1.,24.0,0.,24.0
1979-07-24 04:10:57.800 ,2,0,4.,24.0,2.,24.0,4.,24.0,0.,24.0
1979-07-24 04:11:21.800 ,1,1,4.,24.0,1.,24.0,3.,24.0,0.,24.0
1979-07-24 04:11:45.800 ,1,0,7.,24.0,0.,24.0,1.,24.0,0.,24.0
1979-07-24 04:12:09.800 ,0,1,8.,24.0,2.,24.0,3.,24.0,0.,24.0
1979-07-24 04:12:33.800 ,0,0,10.,24.0,1.,24.0,1.,24.0,0.,24.0
1979-07-24 04:12:57.800 ,0,1,15.,24.0,1.,24.0,3.,24.0,0.,24.0
1979-07-24 04:13:21.800 ,0,0,8.,24.0,5.,24.0,2.,24.0,0.,24.0
1979-07-24 04:13:45.800 ,1,1,6.,24.0,2.,24.0,2.,24.0,0.,24.0
1979-07-24 04:14:09.800 ,1,0,6.,24.0,3.,24.0,5.,24.0,0.,24.0
1979-07-24 04:14:33.800 ,0,0,5.,24.0,1.,24.0,3.,24.0,0.,24.0
1979-07-24 04:14:57.800 ,0,0,,0,,0,,0,,0
1979-07-24 04:14:57.800 ,2,0,7.,24.0,1.,24.0,1.,24.0,0.,24.0
1979-07-24 04:15:21.800 ,3,1,2.,24.0,0.,24.0,2.,24.0,0.,24.0
1979-07-24 04:15:45.800 ,3,0,4.,24.0,0.,24.0,2.,24.0,0.,24.0
1979-07-24 04:16:09.800 ,4,1,2.,24.0,1.,24.0,1.,24.0,0.,24.0
1979-07-24 04:16:33.800 ,4,0,2.,24.0,0.,24.0,2.,24.0,0.,24.0
1979-07-24 04:16:57.800 ,5,1,6.,24.0,0.,24.0,0.,24.0,0.,24.0
1979-07-24 04:17:21.800 ,5,0,7.,24.0,0.,24.0,0.,24.0,0.,24.0
1979-07-24 04:17:45.800 ,6,1,4.,24.0,1.,24.0,4.,24.0,0.,24.0
1979-07-24 04:18:09.800 ,6,0,4.,24.0,3.,24.0,1.,24.0,0.,24.0
1979-07-24 04:18:33.800 ,7,0,10.,24.0,3.,24.0,3.,24.0,0.,24.0
1979-07-24 04:18:57.800 ,7,0,29.,24.0,0.,24.0,4.,24.0,0.,24.0
1979-07-24 04:19:21.800 ,5,1,15.,24.0,0.,24.0,5.,24.0,0.,24.0
1979-07-24 04:19:45.800 ,1,1,4.,24.0,0.,24.0,1.,24.0,0.,24.0
1979-07-24 04:20:09.800 ,2,1,4.,24.0,2.,24.0,3.,24.0,0.,24.0
1979-07-24 04:20:33.800 ,6,1,2.,24.0,0.,24.0,3.,24.0,0.,24.0
1979-07-24 04:20:57.800 ,5,1,20.,24.0,0.,24.0,0.,24.0,0.,24.0
1979-07-24 04:21:21.800 ,1,1,3.,24.0,0.,24.0,3.,24.0,0.,24.0
1979-07-24 04:21:45.800 ,2,1,6.,24.0,2.,24.0,2.,24.0,0.,24.0
1979-07-24 04:22:09.800 ,6,1,6.,24.0,0.,24.0,0.,24.0,0.,24.0
1979-07-24 04:22:33.800 ,5,1,19.,24.0,1.,24.0,2.,24.0,0.,24.0
1979-07-24 04:22:57.800 ,1,1,1.,24.0,1.,24.0,2.,24.0,0.,24.0
1979-07-24 04:23:21.800 ,2,1,11.,24.0,2.,24.0,5.,24.0,0.,24.0
1979-07-24 04:23:45.800 ,6,1,3.,24.0,1.,24.0,5.,24.0,0.,24.0
1979-07-24 04:24:09.800 ,5,1,19.,24.0,0.,24.0,2.,24.0,0.,24.0
1979-07-24 04:24:33.800 ,1,1,5.,24.0,0.,24.0,3.,24.0,0.,24.0
1979-07-24 04:24:57.800 ,2,1,9.,24.0,3.,24.0,3.,24.0,0.,24.0
1979-07-24 04:25:21.800 ,6,1,1.,24.0,0.,24.0,2.,24.0,0.,24.0
1979-07-24 04:25:45.800 ,5,1,15.,24.0,0.,24.0,2.,24.0,0.,24.0
1979-07-24 04:26:09.800 ,1,1,4.,24.0,1.,24.0,0.,24.0,0.,24.0
1979-07-24 04:26:33.800 ,2,1,9.,24.0,1.,24.0,2.,24.0,0.,24.0
1979-07-24 04:26:57.800 ,6,1,5.,24.0,0.,24.0,2.,24.0,0.,24.0
1979-07-24 04:27:21.800 ,5,1,22.,24.0,0.,24.0,2.,24.0,0.,24.0
1979-07-24 04:27:45.800 ,1,1,2.,24.0,0.,24.0,2.,24.0,0.,24.0
1979-07-24 04:28:57.800 ,0,0,19.,24.0,0.,24.0,2.,24.0,0.,24.0
1979-07-24 04:29:21.800 ,1,1,4.,24.0,1.,24.0,0.,24.0,0.,24.0
1979-07-24 04:30:33.800 ,0,0,18.,24.0,0.,24.0,2.,24.0,0.,24.0
1979-07-24 04:30:57.800 ,0,0,1.,24.0,1.,24.0,5.,24.0,0.,24.0
1979-07-24 04:31:21.800 ,4,1,3.,24.0,1.,24.0,3.,24.0,0.,24.0
1979-07-24 04:31:45.800 ,4,0,6.,24.0,1.,24.0,3.,24.0,0.,24.0
1979-07-24 04:32:09.800 ,3,1,1.,24.0,0.,24.0,4.,24.0,0.,24.0
1979-07-24 04:32:33.800 ,3,0,0.,24.0,1.,24.0,0.,24.0,0.,24.0
1979-07-24 04:32:57.800 ,2,1,2.,24.0,0.,24.0,1.,24.0,0.,24.0
1979-07-24 04:33:21.800 ,2,0,5.,24.0,1.,24.0,0.,24.0,0.,24.0
1979-07-24 04:33:45.800 ,1,1,4.,24.0,1.,24.0,1.,24.0,0.,24.0
1979-07-24 04:34:09.800 ,1,0,8.,24.0,1.,24.0,4.,24.0,0.,24.0
1979-07-24 04:34:33.800 ,0,1,5.,24.0,4.,24.0,1.,24.0,0.,24.0
1979-07-24 04:34:57.800 ,0,0,9.,24.0,2.,24.0,3.,24.0,0.,24.0
1979-07-24 04:35:21.800 ,0,1,11.,24.0,4.,24.0,4.,24.0,0.,24.0
1979-07-24 04:35:45.800 ,0,0,11.,24.0,2.,24.0,2.,24.0,0.,24.0
1979-07-24 04:36:09.800 ,1,1,10.,24.0,1.,24.0,0.,24.0,0.,24.0
1979-07-24 04:36:33.800 ,1,0,5.,24.0,0.,24.0,2.,24.0,0.,24.0
1979-07-24 04:36:57.800 ,2,1,3.,24.0,0.,24.0,0.,24.0,0.,24.0
1979-07-24 04:37:21.800 ,2,0,3.,24.0,0.,24.0,1.,24.0,0.,24.0
1979-07-24 04:37:45.800 ,3,1,3.,24.0,1.,24.0,1.,24.0,0.,24.0
1979-07-24 04:38:09.800 ,3,0,5.,24.0,0.,24.0,3.,24.0,0.,24.0
1979-07-24 04:38:33.800 ,4,1,2.,24.0,1.,24.0,1.,24.0,0.,24.0
1979-07-24 04:38:57.800 ,4,0,1.,24.0,1.,24.0,2.,24.0,0.,24.0
1979-07-24 04:39:21.800 ,5,1,2.,24.0,0.,24.0,2.,24.0,0.,24.0
1979-07-24 04:39:45.800 ,5,0,6.,24.0,1.,24.0,3.,24.0,0.,24.0
1979-07-24 04:40:09.800 ,6,1,6.,24.0,1.,24.0,2.,24.0,0.,24.0
1979-07-24 04:40:33.800 ,6,0,4.,24.0,2.,24.0,1.,24.0,0.,24.0
1979-07-24 04:40:57.800 ,7,1,19.,24.0,1.,24.0,3.,24.0,0.,24.0
1979-07-24 04:41:21.800 ,7,0,38.,24.0,0.,24.0,4.,24.0,0.,24.0
1979-07-24 04:41:45.800 ,7,1,27.,24.0,0.,24.0,4.,24.0,0.,24.0
1979-07-24 04:42:09.800 ,7,0,29.,24.0,0.,24.0,1.,24.0,0.,24.0
1979-07-24 04:42:33.800 ,6,1,22.,24.0,0.,24.0,0.,24.0,0.,24.0
1979-07-24 04:42:57.800 ,6,0,3.,24.0,1.,24.0,1.,24.0,0.,24.0
1979-07-24 04:43:21.800 ,5,1,6.,24.0,0.,24.0,0.,24.0,0.,24.0
1979-07-24 04:43:45.800 ,5,0,3.,24.0,0.,24.0,5.,24.0,0.,24.0
1979-07-24 04:44:09.800 ,4,1,3.,24.0,1.,24.0,1.,24.0,0.,24.0
1979-07-24 04:44:33.800 ,4,0,0.,24.0,0.,24.0,0.,24.0,0.,24.0
1979-07-24 04:44:57.800 ,3,1,3.,24.0,0.,24.0,2.,24.0,0.,24.0
1979-07-24 04:45:21.800 ,3,0,2.,24.0,0.,24.0,1.,24.0,0.,24.0
1979-07-24 04:45:45.800 ,2,1,2.,24.0,3.,24.0,2.,24.0,0.,24.0
1979-07-24 04:46:09.800 ,2,0,4.,24.0,3.,24.0,1.,24.0,0.,24.0
1979-07-24 04:46:33.800 ,1,1,3.,24.0,0.,24.0,3.,24.0,0.,24.0
1979-07-24 04:46:57.800 ,1,0,7.,24.0,0.,24.0,3.,24.0,0.,24.0
1979-07-24 04:47:21.800 ,0,1,3.,24.0,2.,24.0,1.,24.0,0.,24.0
1979-07-24 04:47:45.800 ,0,0,9.,24.0,1.,24.0,1.,24.0,0.,24.0
1979-07-24 04:48:09.800 ,0,1,11.,24.0,4.,24.0,1.,24.0,0.,24.0
1979-07-24 04:48:33.800 ,0,0,13.,24.0,2.,24.0,1.,24.0,0.,24.0
1979-07-24 04:48:57.800 ,1,1,11.,24.0,4.,24.0,0.,24.0,0.,24.0
1979-07-24 04:49:21.800 ,1,0,7.,24.0,2.,24.0,0.,24.0,0.,24.0
1979-07-24 04:49:45.800 ,2,1,4.,24.0,1.,24.0,3.,24.0,0.,24.0
1979-07-24 04:50:09.800 ,2,0,6.,24.0,2.,24.0,1.,24.0,0.,24.0
1979-07-24 04:50:33.800 ,3,1,4.,24.0,0.,24.0,0.,24.0,0.,24.0
1979-07-24 04:50:57.800 ,3,0,2.,24.0,1.,24.0,2.,24.0,0.,24.0
1979-07-24 04:51:21.800 ,4,1,3.,24.0,1.,24.0,2.,24.0,0.,24.0
1979-07-24 04:51:45.800 ,4,0,0.,24.0,0.,24.0,1.,24.0,0.,24.0
1979-07-24 04:52:09.800 ,5,1,3.,24.0,0.,24.0,0.,24.0,0.,24.0
1979-07-24 04:52:33.800 ,5,0,3.,24.0,0.,24.0,2.,24.0,0.,24.0
1979-07-24 04:52:57.800 ,6,1,3.,24.0,1.,24.0,0.,24.0,0.,24.0
1979-07-24 04:53:21.800 ,6,0,4.,24.0,0.,24.0,1.,24.0,0.,24.0
1979-07-24 04:53:45.800 ,7,1,9.,24.0,2.,24.0,1.,24.0,0.,24.0
1979-07-24 04:54:09.800 ,7,0,33.,24.0,0.,24.0,1.,24.0,0.,24.0
1979-07-24 04:54:33.800 ,7,1,34.,24.0,0.,24.0,1.,24.0,0.,24.0
1979-07-24 04:54:57.800 ,7,0,29.,24.0,0.,24.0,0.,24.0,0.,24.0
1979-07-24 04:55:21.800 ,6,1,24.,24.0,0.,24.0,0.,24.0,0.,24.0
1979-07-24 04:55:45.800 ,6,0,8.,24.0,3.,24.0,3.,24.0,0.,24.0
1979-07-24 04:56:09.800 ,5,1,4.,24.0,1.,24.0,3.,24.0,0.,24.0
1979-07-24 04:56:33.800 ,5,0,5.,24.0,1.,24.0,0.,24.0,0.,24.0
1979-07-24 04:56:57.800 ,4,1,4.,24.0,0.,24.0,2.,24.0,0.,24.0
1979-07-24 04:57:21.800 ,4,0,3.,24.0,2.,24.0,1.,24.0,0.,24.0
1979-07-24 04:57:45.800 ,3,1,1.,24.0,0.,24.0,3.,24.0,0.,24.0
1979-07-24 04:58:09.800 ,0,0,,0,,0,,0,,0
1979-07-24 04:59:14.000 ,0,0,,0,,0,,0,,0
1979-07-24 04:59:21.800 ,1,1,8.,24.0,1.,24.0,2.,24.0,0.,24.0
1979-07-24 04:59:45.800 ,1,0,10.,24.0,2.,24.0,2.,24.0,0.,24.0
1979-07-24 05:00:09.800 ,0,1,7.,24.0,3.,24.0,1.,24.0,0.,24.0
1979-07-24 05:00:33.800 ,0,0,7.,24.0,6.,24.0,0.,24.0,0.,24.0
1979-07-24 05:00:57.800 ,0,1,11.,24.0,3.,24.0,2.,24.0,0.,24.0
1979-07-24 05:01:21.800 ,0,0,16.,24.0,0.,24.0,0.,24.0,0.,24.0
1979-07-24 05:01:45.800 ,1,1,9.,24.0,2.,24.0,1.,24.0,0.,24.0
1979-07-24 05:02:09.800 ,1,0,7.,24.0,2.,24.0,3.,24.0,0.,24.0
1979-07-24 05:02:33.800 ,2,1,5.,24.0,1.,24.0,0.,24.0,0.,24.0
1979-07-24 05:02:57.800 ,2,0,8.,24.0,1.,24.0,0.,24.0,0.,24.0
1979-07-24 05:03:21.800 ,3,1,0.,24.0,1.,24.0,1.,24.0,0.,24.0
1979-07-24 05:03:45.800 ,3,0,2.,24.0,0.,24.0,0.,24.0,0.,24.0
1979-07-24 05:04:09.800 ,4,1,3.,24.0,1.,24.0,1.,24.0,0.,24.0
1979-07-24 05:04:33.800 ,4,0,2.,24.0,0.,24.0,2.,24.0,0.,24.0
1979-07-24 05:04:57.800 ,5,1,0.,24.0,0.,24.0,2.,24.0,0.,24.0
1979-07-24 05:05:21.800 ,5,0,3.,24.0,1.,24.0,1.,24.0,0.,24.0
1979-07-24 05:05:45.800 ,6,1,3.,24.0,0.,24.0,0.,24.0,0.,24.0
1979-07-24 05:06:09.800 ,6,0,2.,24.0,1.,24.0,3.,24.0,0.,24.0
1979-07-24 05:06:33.800 ,7,0,9.,24.0,0.,24.0,3.,24.0,0.,24.0
1979-07-24 05:06:57.800 ,7,0,35.,24.0,0.,24.0,2.,24.0,0.,24.0
1979-07-24 05:07:21.800 ,5,1,22.,24.0,0.,24.0,1.,24.0,0.,24.0
1979-07-24 05:07:45.800 ,1,1,1.,24.0,1.,24.0,3.,24.0,0.,24.0
1979-07-24 05:08:09.800 ,2,1,4.,24.0,0.,24.0,1.,24.0,0.,24.0
1979-07-24 05:08:33.800 ,6,1,2.,24.0,1.,24.0,0.,24.0,0.,24.0
1979-07-24 05:08:57.800 ,5,1,20.,24.0,0.,24.0,0.,24.0,0.,24.0
1979-07-24 05:09:21.800 ,1,1,4.,24.0,1.,24.0,1.,24.0,0.,24.0
1979-07-24 05:09:45.800 ,2,1,5.,24.0,2.,24.0,1.,24.0,0.,24.0
1979-07-24 05:10:09.800 ,6,1,3.,24.0,0.,24.0,1.,24.0,0.,24.0
1979-07-24 05:10:33.800 ,5,1,15.,24.0,0.,24.0,0.,24.0,0.,24.0
1979-07-24 05:10:57.800 ,1,1,3.,24.0,0.,24.0,1.,24.0,0.,24.0
1979-07-24 05:11:21.800 ,2,1,7.,24.0,0.,24.0,0.,24.0,0.,24.0
1979-07-24 05:11:45.800 ,6,1,2.,24.0,1.,24.0,0.,24.0,0.,24.0
1979-07-24 05:12:09.800 ,5,1,14.,24.0,1.,24.0,1.,24.0,0.,24.0
1979-07-24 05:12:33.800 ,1,1,2.,24.0,0.,24.0,0.,24.0,0.,24.0
1979-07-24 05:12:57.800 ,2,1,1.,24.0,1.,24.0,1.,24.0,0.,24.0
1979-07-24 05:13:21.800 ,6,1,2.,24.0,1.,24.0,0.,24.0,0.,24.0
1979-07-24 05:13:45.800 ,5,1,10.,24.0,0.,24.0,1.,24.0,0.,24.0
1979-07-24 05:14:09.800 ,1,1,1.,24.0,0.,24.0,1.,24.0,0.,24.0
1979-07-24 05:14:33.800 ,2,1,9.,24.0,2.,24.0,2.,24.0,0.,24.0
1979-07-24 05:14:57.800 ,6,1,3.,24.0,2.,24.0,1.,24.0,0.,24.0
1979-07-24 05:15:21.800 ,5,1,13.,24.0,0.,24.0,2.,24.0,0.,24.0
1979-07-24 05:15:45.800 ,1,1,2.,24.0,0.,24.0,0.,24.0,0.,24.0
1979-07-24 05:16:09.800 ,2,1,4.,24.0,3.,24.0,2.,24.0,0.,24.0
1979-07-24 05:16:33.800 ,6,1,2.,24.0,0.,24.0,1.,24.0,0.,24.0
1979-07-24 05:16:57.800 ,5,1,21.,24.0,0.,24.0,3.,24.0,0.,24.0
1979-07-24 05:17:21.800 ,1,1,3.,24.0,2.,24.0,1.,24.0,0.,24.0
1979-07-24 05:17:45.800 ,0,0,4.,24.0,2.,24.0,0.,24.0,0.,24.0
1979-07-24 05:18:09.800 ,0,0,4.,24.0,0.,24.0,1.,24.0,0.,24.0
1979-07-24 05:18:33.800 ,5,1,15.,24.0,0.,24.0,1.,24.0,0.,24.0
1979-07-24 05:18:57.800 ,5,0,4.,24.0,1.,24.0,1.,24.0,0.,24.0
1979-07-24 05:19:21.800 ,4,1,3.,24.0,1.,24.0,0.,24.0,0.,24.0
1979-07-24 05:19:45.800 ,4,0,0.,24.0,0.,24.0,2.,24.0,0.,24.0
1979-07-24 05:20:09.800 ,3,1,0.,24.0,1.,24.0,0.,24.0,0.,24.0
1979-07-24 05:20:33.800 ,3,0,2.,24.0,0.,24.0,0.,24.0,0.,24.0
1979-07-24 05:20:57.800 ,2,1,1.,24.0,2.,24.0,0.,24.0,0.,24.0
1979-07-24 05:21:21.800 ,2,0,3.,24.0,0.,24.0,0.,24.0,0.,24.0
1979-07-24 05:21:45.800 ,1,1,0.,24.0,0.,24.0,1.,24.0,0.,24.0
1979-07-24 05:22:09.800 ,1,0,6.,24.0,0.,24.0,0.,24.0,0.,24.0
1979-07-24 05:22:33.800 ,0,1,7.,24.0,0.,24.0,2.,24.0,0.,24.0
1979-07-24 05:22:57.800 ,0,0,8.,24.0,1.,24.0,1.,24.0,0.,24.0
1979-07-24 05:23:21.800 ,0,1,11.,24.0,4.,24.0,1.,24.0,0.,24.0
1979-07-24 05:23:45.800 ,0,0,11.,24.0,0.,24.0,0.,24.0,0.,24.0
1979-07-24 05:24:09.800 ,1,1,5.,24.0,2.,24.0,0.,24.0,0.,24.0
1979-07-24 05:24:33.800 ,1,0,9.,24.0,1.,24.0,2.,24.0,0.,24.0
1979-07-24 05:24:57.800 ,2,1,4.,24.0,0.,24.0,1.,24.0,0.,24.0
1979-07-24 05:25:21.800 ,2,0,2.,24.0,0.,24.0,0.,24.0,0.,24.0
1979-07-24 05:25:45.800 ,3,1,2.,24.0,1.,24.0,1.,24.0,0.,24.0
1979-07-24 05:26:09.800 ,3,0,1.,24.0,0.,24.0,2.,24.0,0.,24.0
1979-07-24 05:26:33.800 ,4,1,3.,24.0,0.,24.0,1.,24.0,0.,24.0
1979-07-24 05:26:57.800 ,4,0,4.,24.0,0.,24.0,1.,24.0,0.,24.0
1979-07-24 05:27:21.800 ,5,1,2.,24.0,0.,24.0,0.,24.0,0.,24.0
1979-07-24 05:27:45.800 ,5,0,3.,24.0,1.,24.0,0.,24.0,0.,24.0
1979-07-24 05:28:09.800 ,6,1,1.,24.0,1.,24.0,2.,24.0,0.,24.0
1979-07-24 05:28:33.800 ,6,0,8.,24.0,1.,24.0,2.,24.0,0.,24.0
1979-07-24 05:28:57.800 ,7,1,7.,24.0,1.,24.0,1.,24.0,0.,24.0
1979-07-24 05:29:21.800 ,7,0,24.,24.0,0.,24.0,1.,24.0,0.,24.0
1979-07-24 05:29:45.800 ,7,1,33.,24.0,0.,24.0,0.,24.0,0.,24.0
1979-07-24 05:30:09.800 ,7,0,28.,24.0,0.,24.0,0.,24.0,0.,24.0
1979-07-24 05:30:33.800 ,6,1,17.,24.0,0.,24.0,2.,24.0,0.,24.0
1979-07-24 05:30:57.800 ,6,0,3.,24.0,0.,24.0,1.,24.0,0.,24.0
1979-07-24 05:31:21.800 ,5,1,2.,24.0,0.,24.0,1.,24.0,0.,24.0
1979-07-24 05:31:45.800 ,5,0,5.,24.0,1.,24.0,0.,24.0,0.,24.0
1979-07-24 05:32:09.800 ,4,1,2.,24.0,1.,24.0,2.,24.0,0.,24.0
1979-07-24 05:32:33.800 ,4,0,3.,24.0,1.,24.0,0.,24.0,0.,24.0
1979-07-24 05:32:57.800 ,3,1,5.,24.0,1.,24.0,0.,24.0,0.,24.0
1979-07-24 05:33:21.800 ,3,0,0.,24.0,0.,24.0,0.,24.0,0.,24.0
1979-07-24 05:33:45.800 ,2,1,1.,24.0,1.,24.0,0.,24.0,0.,24.0
1979-07-24 05:34:09.800 ,2,0,3.,24.0,0.,24.0,1.,24.0,0.,24.0
1979-07-24 05:34:33.800 ,1,1,5.,24.0,0.,24.0,1.,24.0,0.,24.0
1979-07-24 05:34:57.800 ,1,0,4.,24.0,3.,24.0,1.,24.0,0.,24.0
1979-07-24 05:35:21.800 ,0,1,4.,24.0,2.,24.0,3.,24.0,0.,24.0
1979-07-24 05:35:45.800 ,0,0,13.,24.0,3.,24.0,1.,24.0,0.,24.0
1979-07-24 05:36:09.800 ,0,1,10.,24.0,3.,24.0,2.,24.0,0.,24.0